{"data":{"norad_id":55477,"epoch":"2026-05-24T17:00:36.448416Z","epoch_age_seconds":99876,"freshness":"FRESH","line1":"1 55477U 23015AE  26144.70875519 -.00002560  00000+0 -83539-4 0  9994","line2":"2 55477  43.0005 251.9032 0001769 277.2706  82.7945 15.27578209182437","mean_motion":15.27578209,"eccentricity":0.0001769,"inclination_deg":43.0005,"raan_deg":251.9032,"arg_perigee_deg":277.2706,"mean_anomaly_deg":82.7945,"bstar":-8.3539e-5,"rev_number":18243,"period_min":94.266859236141,"perigee_km":481.84071417411,"apogee_km":484.26820371229,"semimajor_km":6861.1914589432,"source":"CELESTRAK","updated_at":"2026-05-25T13:38:17.808286Z"}}